Location: Cape Cod Imaging Station
(41.7417°N, 70.1583°W)
Time: 10:01:34
(UTC-05:00)

Tiangong 2 - Visible Passes

Search period start: 13 December 2017 00:00
Search period end: 23 December 2017 00:00
Orbit: 386 x 390 km, 42.8° (Epoch: 13 December)

Date Brightness Start Highest point End Pass type
(mag) Time Alt. Az. Time Alt. Az. Time Alt. Az.
21 Dec 2.8 17:59:30 10° SSW 18:01:43 23° SSE 18:01:43 23° SSE visible
22 Dec 3.4 17:02:00 10° S 17:03:53 15° SE 17:05:46 10° ESE visible
22 Dec 3.6 18:37:09 10° WSW 18:38:24 21° WSW 18:38:24 21° WSW visible
